Location: *
(42.3442°N, 9.2072°E)
Time: 02:50:52
(UTC+00:00)

Iridium 2 - Pass Details

Date: 09 April 2020
Orbit: 502 x 518 km, 85.5° (Epoch: 29 May)

Event Time Altitude Azimuth Distance (km) Brightness Sun altitude
Exits shadow 19:33:30 36° 89° (E) 837 4.3 -17.3°
Maximum altitude 19:33:31 36° 88° (E) 837 4.3 -17.3°
Drops below altitude 10° 19:37:03 10° 21° (NNE) 1,755 6.5 -17.8°
Sets 19:39:18 0° 13° (NNE) 2,649 7.5 -18.2°
